www.pogodaiklimat.ru

АРХИВ ПОГОДЫ в Ростове-на-Дону

Время (UTC), дата Ветер
(напр.,м/с)
 
Видим.   Явления Облачность Т
(С)
Тd
(С)
f
(%)
Тe
(С)
Тes
(С)
Комфортность P
(гПа)
Po
(гПа)
Тmin
(С)
Tmax
(С)
R
(мм)
S
(см)
18 10.09 В 7
{11}
10 км 8/0
[Ac trans]
+17.7 +10.9 64 +17 +17 по сезону 1016.4 1007.6
21 10.09 В 6
{10}
10 км 8/0
[Ac trans]
+17.8 +9.7 59 +17 +17 тепло 1016.6 1007.8
00 11.09 В 7-10
{10}
10 км 8/0
[Ac trans]
+18.2 +8.9 55 +18 +18 тепло 1016.4 1007.6
03 11.09 В 7-10
{10}
10 км 6/0
[Ac trans]
+17.3 +8.9 58 +16 +16 по сезону 1016.8 1008.0 +17.1
06 11.09 В 8-11
{10}
10 км 8/0
[Ac trans Ci fib]
+20.1 +10.1 53 +21 +22 комфорт 1017.1 1008.4
09 11.09 СВ 8-11
{11}
10 км 8/0
[Ac trans Ci fib]
+24.7 +11.8 44 +26 +27 жарко 1017.5 1008.9
12 11.09 В 6
{12}
10 км 8/0
[Ac trans Ci fib]
+25.9 +11.2 40 +27 +29 жарко 1017.3 1008.7
15 11.09 В 6
{10}
10 км 9/3 1000 м
[Cb calv Ac trans]
+23.5 +10.3 43 +25 +25 комфорт 1017.2 1008.6 +26.0
18 11.09 ЮЗ 4
{10}
10 км 9/1 1000 м
[Cb calv Ac trans]
+19.4 +13.5 69 +21 +21 комфорт 1018.3 1009.5
21 11.09 СЗ 3 10 км 10/0
[Ac und]
+18.6 +13.5 72 +19 +19 тепло 1018.1 1009.3
00 12.09 СВ 2 10 км 10/0
[Ac As]
+18.1 +11.8 67 +19 +19 тепло 1017.9 1009.1
03 12.09 СВ 4 10 км 10/0
[Ac und]
+17.2 +7.7 54 +17 +17 тепло 1017.7 1008.9 +17.1
06 12.09 С 3 10 км 9/0
[Ac trans Ci fib]
+19.5 +8.7 50 +21 +23 комфорт 1017.7 1008.9
09 12.09 СВ 3 10 км 8/0
[Ac trans Ci fib]
+21.1 +9.1 46 +22 +28 комфорт 1017.4 1008.7
12 12.09 СВ 5 10 км 9/0
[Ac trans Ci fib]
+20.3 +10.2 52 +22 +24 комфорт 1017.4 1008.7
15 12.09 ЮВ 2 10 км 9/0
[Ac trans]
+19.7 +12.4 63 +22 +22 комфорт 1017.6 1008.8 +22.4
18 12.09 СВ 4 10 км 8/0
[Ac trans]
+16.8 +12.1 74 +16 +16 по сезону 1018.2 1009.4
21 12.09 СВ 3 10 км 9/3 600 м
[Sc Ac trans]
+17.0 +13.6 80 +17 +17 тепло 1018.2 1009.4
00 13.09 СВ 4 4000 м дымка 9/6 540 м
[Sc Ac trans]
+16.7 +14.6 87 +16 +16 тепло 1018.9 1010.1
03 13.09 СВ 4 10 км {дождь} 9/6 330 м
[Sc Ac trans]
+14.2 +11.8 85 +13 +13 по сезону 1019.8 1010.9 +14.2 0.0
06 13.09 СВ 5 10 км {дождь} 10/6 630 м
[Sc Ac und]
+14.8 +10.6 76 +13 +14 прохладно 1020.2 1011.3 +13.9
09 13.09 СВ 6 10 км 8/8 660 м
[Sc]
+16.3 +10.8 70 +15 +16 прохладно 1020.5 1011.6
12 13.09 СВ 7
{10}
10 км 8/4 600 м
[Cu med, cong Ac trans]
+18.8 +10.9 60 +19 +20 прохладно 1019.5 1010.7
15 13.09 В 7
{11}
10 км 8/4 600 м
[Sc Ac trans]
+16.6 +10.7 68 +15 +15 прохладно 1020.1 1011.2 +19.7
18 13.09 С 2
{11}
10 км 4/0
[Ac trans]
+14.4 +10.3 76 +14 +14 по сезону 1020.4 1011.5
21 13.09 С 4 10 км ясно +13.6 +8.9 73 +12 +12 по сезону 1019.7 1010.7
00 14.09 С 4 10 км 3/0
[Ac trans]
+13.4 +8.0 70 +12 +12 по сезону 1019.0 1010.0
03 14.09 С 3 10 км 3/0
[Ac trans]
+12.5 +8.1 75 +11 +11 прохладно 1018.7 1009.7 +12.4
06 14.09 СВ 4 10 км 1/0
[Ci fib]
+17.2 +9.5 61 +17 +20 тепло 1018.5 1009.7 +12.3
09 14.09 СВ 4 10 км 1/0
[Ac trans]
+22.4 +9.2 43 +24 +31 комфорт 1017.2 1008.5
12 14.09 В 5 10 км 6/4 1000 м
[Cu med, cong Ac trans Ci fib]
+24.6 +11.3 43 +26 +28 жарко 1016.4 1007.8
15 14.09 В 3 10 км 8/0
[Ac trans Ci fib]
+22.8 +12.2 51 +25 +25 комфорт 1016.1 1007.5 +25.1
18 14.09 С 3 10 км 6/0
[Ac trans]
+20.6 +11.8 57 +23 +23 комфорт 1016.4 1007.7
21 14.09 СВ 2 10 км 6/0
[Ac trans]
+19.3 +11.8 62 +21 +21 комфорт 1015.6 1006.9
00 15.09 С 4 10 км 6/0
[Ac trans]
+17.6 +10.4 63 +17 +17 тепло 1015.3 1006.5
03 15.09 СВ 3 10 км 3/0
[Ac trans]
+14.5 +8.3 66 +14 +14 по сезону 1015.1 1006.2 +14.5
06 15.09 СВ 4 10 км 3/1 1000 м
[Cu hum Ac trans]
+20.6 +9.1 48 +22 +25 комфорт 1015.3 1006.6 +13.5
09 15.09 В 4 10 км 5/3 1000 м
[Cb calv Ac trans]
+23.8 +10.1 42 +25 +29 комфорт 1014.7 1006.1
12 15.09 ЮВ 4 10 км 5/4 1000 м
[Cb calv Ac trans]
+25.5 +10.6 39 +26 +29 жарко 1013.9 1005.3
15 15.09 СВ 5 10 км 8/3 1000 м
[Cb calv Ac trans]
+21.4 +12.8 58 +24 +24 комфорт 1013.6 1004.9 +26.0
18 15.09 С 6
{10}
10 км 3/0
[Ac trans]
+19.0 +10.6 58 +19 +19 тепло 1014.8 1006.0
21 15.09 С 6 10 км ясно +16.2 +10.8 70 +15 +15 по сезону 1014.7 1005.9
00 16.09 С 6 10 км 6/0
[Ac trans]
+14.7 +11.0 78 +13 +13 по сезону 1014.3 1005.4
03 16.09 С 5
{10}
10 км 5/1 1000 м
[Cb calv Ac trans]
+12.5 +10.7 89 +10 +10 прохладно 1014.2 1005.3 +12.5
06 16.09 С 6
{10}
10 км гроза, ливневой дождь 8/4 1000 м
[Cb cap Ac trans]
+13.4 +11.2 87 +11 +12 прохладно 1014.7 1005.8 +11.9
09 16.09 СВ 9-12
{13}
10 км {гроза, ливн. осадки} 4/4 1000 м
[Cb calv Ac trans]
+20.6 +11.5 56 +22 +23 комфорт 1014.0 1005.3
12 16.09 В 5
{14}
10 км {гроза, ливн. осадки} 6/4 1000 м
[Cb calv Ac trans Ci ing]
+22.4 +8.9 42 +24 +25 комфорт 1014.4 1005.7
15 16.09 СВ 5 10 км 4/1 1000 м
[Cb calv Ac trans]
+21.3 +10.1 49 +23 +23 комфорт 1014.8 1006.1 +22.7 0.0
18 16.09 СВ 6-10
{10}
10 км ясно +17.3 +9.9 62 +16 +16 по сезону 1016.8 1008.0
21 16.09 СВ 4
{10}
10 км ясно +14.0 +9.6 75 +13 +13 по сезону 1017.8 1008.9
00 17.09 СВ 6
{10}
10 км ясно +13.1 +8.2 72 +11 +11 по сезону 1017.7 1008.7
03 17.09 СВ 5 10 км 1/0
[Ac trans]
+11.8 +7.0 72 +9 +9 прохладно 1018.8 1009.8 +11.3
06 17.09 В 8-11
{11}
10 км 3/0
[Ac trans]
+16.0 +7.1 55 +14 +15 по сезону 1019.6 1010.7
09 17.09 В 9-13
{12}
10 км 3/0
[Ac trans]
+20.0 +6.5 41 +20 +21 тепло 1019.9 1011.1
12 17.09 В 8-11
{13}
10 км 3/0
[Ac trans]
+20.8 +5.4 37 +21 +22 комфорт 1019.7 1010.9
15 17.09 В 7
{12}
10 км 1/0
[Ac trans]
+17.7 +3.5 39 +17 +17 по сезону 1020.9 1012.0 +21.5

 

Обсудить погоду в Ростове-на-Дону на МЕТЕОФОРУМЕ

 

Местоположение метеостанции Ростов-на-Дону (Ростовская область, Россия): широта 47.27 долгота 39.82 высота над уровнем моря 75 м.

В архиве по умолчанию представлена погода в Ростове-на-Дону за последнюю неделю. Архивные данные за месяц целиком и за предыдущие месяцы, начиная с января 2011 года, Вы можете получить, выбрав интересующий диапазон дат из раскрывающегося списка и нажав кнопку "Ввод!".

Внимание! Время в таблицах - всемирное. Для получения местного времени необходимо прибавить поправку, которая в Ростове-на-Дону равна 4 ч.

Ветер - указаны скорость ветра в м/с - средняя за 10 мин, порывы в срок и между сроками (в фигурных скобках) и направление, откуда дует ветер: С - северный, СВ - северо-восточный, В - восточный, ЮВ - юго-восточный, Ю - южный, ЮЗ - юго-западный, З - западный, СЗ - северо-западный.
Видимость - горизонтальная дальность видимости в метрах или километрах. При видимости от 1 до 10 км при отсутствии осадков обычно наблюдается дымка, при ухудшении видимости до 1 км и менее - туман. В сухую погоду видимость может ухудшаться дымом, пылью или мглою.
Явления - указаны атсосферные явления, наблюдавшиеся в срок или в последний час перед сроком; фигурными скобками обозначены явления, наблюдавшиеся между сроками (за 1-3 часа до срока); квадратными скобками обозначены град или гололедные отложения с указанием их диаметра в мм.
Облачность - указаны через наклонную черту общая и нижняя облачность в баллах и высота нижней границы облаков в метрах; квадратными скобками обозначены формы облаков: Ci - перистые, Cs - перисто-слоистые, Cc - перисто-кучевые, Ac - высококучевые, As - высокослоистые, Sc - слоисто-кучевые, Ns - слоисто-дождевые, Cu - кучевые, Cb - кучево-дождевые. Подробнее классификацию облаков см. в Атласе облаков (PDF).
T - Температура воздуха - температура, измеренная на высоте 2 м над землей.
Td - Температура точки росы - температура, при понижении до которой содержащийся в воздухе водяной пар достигнет насыщения.
f - Относительная влажность воздуха - влажноcть воздуха, измеренная на высоте 2 м над землей.
Te - Эффективная температура - температура, которую ощущает одетый по сезону человек в тени. Характеристика душности погоды. При расчете учитывается влияние влажности воздуха и скорости ветра на теплоощущения человека.
Tes - Эффективная температура на солнце - температура, которую ощущает человек, с поправкой на солнечный нагрев. Характеристика знойности погоды. Зависит от высоты солнца над горизонтом, облачности и скорости ветра. Ночью, в пасмурную погоду, а также при ветре 12 м/с и более поправка равна нулю.
P - Атмосферное давление - приведенное к уровню моря атмосферное давление.
Po - Атмосферное давление - измеренное на уровне метеостанции атмосферное давление.
Tmin - Минимальная температура - минимум температуры воздуха на высоте 2 м над землей.
Tmax - Максимальная температура - максимум температуры воздуха на высоте 2 м над землей.
R - Количество осадков - Количество выпавших осадков, мм.
S - Снежный покров - Высота снежного покрова, см.